Weather History for KOKK - November, 2013

Change the Weather History Date:

Friday, November 1, 2013

  Actual Average (KGUS) Record (KGUS)
Temperature  
Mean Temperature 48 °F -  
Max Temperature 51 °F 54 °F 77 °F (1999)
Min Temperature 44 °F 38 °F 24 °F (1996)
Degree Days  
Heating Degree Days 18    
Moisture  
Dew Point 41 °F    
Average Humidity 76    
Maximum Humidity 87    
Minimum Humidity 62    
Precipitation  
Precipitation 0.01 in - - ()
Sea Level Pressure  
Sea Level Pressure 29.62 in    
Wind  
Wind Speed 16 mph (West)    
Max Wind Speed 26 mph    
Max Gust Speed 36 mph    
Visibility 10 miles    
Events      
Averages and records for this station are not official NWS values.
T = Trace of Precipitation, MM = Missing Value Source: NWS Daily Summary

Daily Weather History Graph

Daily Weather History Graph

Search for Another Location

Airport or City:

Trip Planner

Search our weather history database for the weather conditions in past years. The results will help you decide how hot, cold, wet, or windy it might be!

Date:

Astronomy

Nov. 01, 2013 Rise Set
Actual Time 7:14 AM CDT 5:40 PM CDT
Civil Twilight 6:46 AM CDT 6:08 PM CDT
Nautical Twilight 6:13 AM CDT 6:41 PM CDT
Astronomical Twilight 5:42 AM CDT 7:12 PM CDT
Moon 5:05 AM CDT 4:33 PM CDT
Length of Visible Light 11h 22m
Length of Day
10h 26m
Waning Crescent, 4% of the Moon is Illuminated
Nov 1
Waning Crescent
Nov 3
New
Nov 9
First Quarter
Nov 17
Full
Nov 25
Last Quarter

Hourly Weather History & Observations

Time (CDT) Temp. Windchill Dew Point Humidity Pressure Visibility Wind Dir Wind Speed Gust Speed Precip Events Conditions
12:15 AM 51.8 °F - 46.4 °F 82% 29.41 in 10.0 mi West 15.0 mph 21.9 mph 0.01 in   Scattered Clouds
12:35 AM 51.8 °F - 46.4 °F 82% 29.43 in 10.0 mi West 21.9 mph 27.6 mph 0.01 in   Mostly Cloudy
12:55 AM 51.8 °F - 44.6 °F 76% 29.44 in 10.0 mi West 21.9 mph 29.9 mph 0.01 in   Overcast
1:15 AM 50.0 °F - 44.6 °F 82% 29.46 in 10.0 mi West 16.1 mph - N/A   Mostly Cloudy
1:35 AM 50.0 °F - 44.6 °F 82% 29.47 in 10.0 mi West 18.4 mph 27.6 mph N/A   Mostly Cloudy
1:55 AM 50.0 °F - 44.6 °F 82% 29.47 in 10.0 mi West 26.5 mph 31.1 mph N/A   Mostly Cloudy
2:15 AM 48.2 °F - 42.8 °F 82% 29.49 in 10.0 mi West 25.3 mph 35.7 mph N/A   Mostly Cloudy
2:35 AM 48.2 °F - 42.8 °F 82% 29.50 in 10.0 mi West 20.7 mph 26.5 mph N/A   Overcast
2:55 AM 46.4 °F 39.5 °F 41.0 °F 81% 29.51 in 10.0 mi West 17.3 mph 24.2 mph N/A   Overcast
3:15 AM 46.4 °F 37.9 °F 41.0 °F 81% 29.52 in 10.0 mi West 25.3 mph 29.9 mph N/A   Overcast
3:35 AM 46.4 °F 39.0 °F 39.2 °F 76% 29.53 in 10.0 mi West 19.6 mph 28.8 mph N/A   Overcast
3:55 AM 46.4 °F 40.4 °F 39.2 °F 76% 29.52 in 10.0 mi West 13.8 mph - N/A   Scattered Clouds
4:15 AM 46.4 °F 40.7 °F 39.2 °F 76% 29.52 in 10.0 mi West 12.7 mph - N/A   Scattered Clouds
4:35 AM 46.4 °F 39.5 °F 39.2 °F 76% 29.54 in 10.0 mi West 17.3 mph 21.9 mph N/A   Mostly Cloudy
4:55 AM 44.6 °F 37.4 °F 39.2 °F 81% 29.54 in 10.0 mi West 16.1 mph 25.3 mph N/A   Mostly Cloudy
5:15 AM 44.6 °F 38.1 °F 39.2 °F 81% 29.55 in 10.0 mi WSW 13.8 mph - N/A   Partly Cloudy
5:35 AM 44.6 °F 38.8 °F 39.2 °F 81% 29.56 in 10.0 mi WSW 11.5 mph 17.3 mph N/A   Scattered Clouds
5:55 AM 44.6 °F 38.8 °F 39.2 °F 81% 29.57 in 10.0 mi WSW 11.5 mph - N/A   Overcast
6:15 AM 46.4 °F 39.8 °F 39.2 °F 76% 29.58 in 10.0 mi WSW 16.1 mph 21.9 mph N/A   Overcast
6:35 AM 46.4 °F 40.1 °F 41.0 °F 81% 29.59 in 10.0 mi WSW 15.0 mph - N/A   Overcast
6:55 AM 46.4 °F 39.5 °F 41.0 °F 81% 29.60 in 10.0 mi WSW 17.3 mph 24.2 mph N/A   Overcast
7:15 AM 46.4 °F 39.0 °F 41.0 °F 81% 29.60 in 10.0 mi West 19.6 mph 24.2 mph N/A   Overcast
7:35 AM 46.4 °F 40.1 °F 42.8 °F 87% 29.61 in 10.0 mi West 15.0 mph 27.6 mph N/A   Overcast
7:55 AM 46.4 °F 38.7 °F 41.0 °F 81% 29.61 in 10.0 mi West 20.7 mph 24.2 mph N/A   Overcast
8:15 AM 46.4 °F 40.1 °F 41.0 °F 81% 29.61 in 10.0 mi West 15.0 mph 24.2 mph N/A   Overcast
8:35 AM 46.4 °F 41.1 °F 41.0 °F 81% 29.62 in 9.0 mi West 11.5 mph - N/A   Overcast
8:55 AM 46.4 °F 40.1 °F 42.8 °F 87% 29.61 in 10.0 mi West 15.0 mph - N/A   Overcast
9:15 AM 48.2 °F - 42.8 °F 82% 29.61 in 10.0 mi WSW 12.7 mph - N/A   Overcast
9:35 AM 48.2 °F - 42.8 °F 82% 29.62 in 10.0 mi WSW 16.1 mph 21.9 mph N/A   Overcast
9:55 AM 48.2 °F - 42.8 °F 82% 29.63 in 10.0 mi WSW 16.1 mph 20.7 mph N/A   Overcast
10:15 AM 50.0 °F - 42.8 °F 76% 29.63 in 10.0 mi WSW 17.3 mph - N/A   Overcast
10:35 AM 50.0 °F - 41.0 °F 71% 29.63 in 10.0 mi WSW 18.4 mph 23.0 mph N/A   Overcast
10:55 AM 51.8 °F - 42.8 °F 71% 29.63 in 10.0 mi West 18.4 mph 23.0 mph N/A   Overcast
11:15 AM 51.8 °F - 42.8 °F 71% 29.63 in 10.0 mi West 15.0 mph 23.0 mph N/A   Mostly Cloudy
11:35 AM 51.8 °F - 42.8 °F 71% 29.64 in 10.0 mi WSW 16.1 mph - N/A   Mostly Cloudy
11:55 AM 51.8 °F - 42.8 °F 71% 29.64 in 10.0 mi WSW 13.8 mph - N/A   Overcast
12:15 PM 51.8 °F - 42.8 °F 71% 29.64 in 10.0 mi WSW 13.8 mph 21.9 mph N/A   Overcast
12:35 PM 50.0 °F - 42.8 °F 76% 29.63 in 10.0 mi SW 12.7 mph 23.0 mph N/A   Overcast
12:55 PM 50.0 °F - 41.0 °F 71% 29.63 in 10.0 mi SW 20.7 mph 26.5 mph N/A   Overcast
1:15 PM 51.8 °F - 42.8 °F 71% 29.63 in 10.0 mi WSW 17.3 mph 23.0 mph N/A   Overcast
1:35 PM 51.8 °F - 42.8 °F 71% 29.63 in 10.0 mi WSW 20.7 mph 24.2 mph N/A   Overcast
1:55 PM 51.8 °F - 41.0 °F 67% 29.62 in 10.0 mi West 15.0 mph 25.3 mph N/A   Overcast
2:15 PM 51.8 °F - 41.0 °F 67% 29.63 in 10.0 mi West 17.3 mph 24.2 mph N/A   Overcast
2:35 PM 51.8 °F - 41.0 °F 67% 29.63 in 10.0 mi West 16.1 mph 21.9 mph N/A   Overcast
2:55 PM 51.8 °F - 41.0 °F 67% 29.64 in 10.0 mi West 12.7 mph - N/A   Overcast
3:15 PM 51.8 °F - 41.0 °F 67% 29.64 in 10.0 mi West 16.1 mph - N/A   Overcast
3:35 PM 51.8 °F - 39.2 °F 62% 29.64 in 10.0 mi West 15.0 mph 19.6 mph N/A   Overcast
3:55 PM 51.8 °F - 39.2 °F 62% 29.65 in 10.0 mi West 11.5 mph - N/A   Overcast
4:15 PM 51.8 °F - 39.2 °F 62% 29.66 in 10.0 mi West 10.4 mph - N/A   Overcast
4:35 PM 51.8 °F - 39.2 °F 62% 29.66 in 10.0 mi West 8.1 mph - N/A   Overcast
4:55 PM 50.0 °F - 39.2 °F 66% 29.66 in 10.0 mi West 6.9 mph - N/A   Overcast
5:15 PM 50.0 °F - 39.2 °F 66% 29.66 in 10.0 mi West 6.9 mph - N/A   Overcast
5:35 PM 50.0 °F - 39.2 °F 66% 29.67 in 10.0 mi West 8.1 mph - N/A   Overcast
5:55 PM 50.0 °F - 41.0 °F 71% 29.68 in 10.0 mi West 6.9 mph - N/A   Mostly Cloudy
6:15 PM 48.2 °F - 41.0 °F 76% 29.69 in 10.0 mi West 8.1 mph - N/A   Overcast
6:35 PM 48.2 °F - 41.0 °F 76% 29.69 in 10.0 mi West 10.4 mph - N/A   Overcast
6:55 PM 48.2 °F - 39.2 °F 71% 29.70 in 10.0 mi West 10.4 mph 16.1 mph N/A   Overcast
7:15 PM 48.2 °F - 39.2 °F 71% 29.71 in 10.0 mi West 9.2 mph - N/A   Overcast
7:35 PM 48.2 °F - 39.2 °F 71% 29.71 in 10.0 mi West 11.5 mph - N/A   Overcast
7:55 PM 48.2 °F - 39.2 °F 71% 29.71 in 10.0 mi West 8.1 mph - N/A   Overcast
8:15 PM 48.2 °F - 39.2 °F 71% 29.72 in 10.0 mi West 11.5 mph - N/A   Mostly Cloudy
8:35 PM 46.4 °F 41.5 °F 39.2 °F 76% 29.72 in 8.0 mi West 10.4 mph - N/A   Overcast
8:55 PM 46.4 °F 41.1 °F 39.2 °F 76% 29.72 in 10.0 mi West 11.5 mph - N/A   Overcast
9:15 PM 46.4 °F 40.1 °F 39.2 °F 76% 29.73 in 10.0 mi West 15.0 mph - N/A   Overcast
9:35 PM 46.4 °F 40.1 °F 39.2 °F 76% 29.73 in 10.0 mi West 15.0 mph 20.7 mph N/A   Overcast
9:55 PM 46.4 °F 40.7 °F 41.0 °F 81% 29.73 in 10.0 mi West 12.7 mph - N/A   Overcast
10:15 PM 46.4 °F 41.5 °F 42.8 °F 87% 29.74 in 9.0 mi West 10.4 mph - N/A   Overcast
10:35 PM 46.4 °F 41.5 °F 41.0 °F 81% 29.74 in 10.0 mi West 10.4 mph - N/A   Overcast
10:55 PM 46.4 °F 41.5 °F 41.0 °F 81% 29.74 in 9.0 mi West 10.4 mph - N/A   Overcast
11:15 PM 46.4 °F 41.5 °F 41.0 °F 81% 29.74 in 8.0 mi West 10.4 mph - N/A   Overcast
11:35 PM 46.4 °F 41.5 °F 41.0 °F 81% 29.74 in 8.0 mi West 10.4 mph - N/A   Overcast
11:55 PM 46.4 °F 40.7 °F 41.0 °F 81% 29.73 in 9.0 mi West 12.7 mph - N/A   Overcast